Weather History for KP58 - February, 2013

Change the Weather History Date:

Monday, February 25, 2013

  Actual Average Record
Temperature  
Mean Temperature 30 °F -  
Max Temperature 35 °F 30 °F 51 °F (2001)
Min Temperature 26 °F 19 °F -4 °F (2003)
Degree Days  
Heating Degree Days 34    
Moisture  
Dew Point 22 °F    
Average Humidity 71    
Maximum Humidity 89    
Minimum Humidity 52    
Precipitation  
Precipitation 0.00 in - - ()
Sea Level Pressure  
Sea Level Pressure 30.19 in    
Wind  
Wind Speed 1 mph (SE)    
Max Wind Speed 8 mph    
Max Gust Speed -    
Averages and records for this station are not official NWS values.
T = Trace of Precipitation, MM = Missing Value Source: NWS Daily Summary

Daily Weather History Graph

Daily Weather History Graph

Search for Another Location

Airport or City:

Trip Planner

Search our weather history database for the weather conditions in past years. The results will help you decide how hot, cold, wet, or windy it might be!

Date:

Astronomy

Feb. 25, 2013 Rise Set
Actual Time 7:14 AM EST 6:14 PM EST
Civil Twilight 6:45 AM EST 6:43 PM EST
Nautical Twilight 6:11 AM EST 7:17 PM EST
Astronomical Twilight 5:38 AM EST 7:50 PM EST
Moon 6:29 PM EST (2/25) 6:42 AM EST (2/25)
Length of Visible Light 11h 58m
Length of Day
11h 00m
Full, 100% of the Moon is Illuminated
Feb 25
Full
Feb 25
Full
Mar 4
Last Quarter
Mar 11
New
Mar 19
First Quarter

Hourly Weather History & Observations

Time (EST) Temp. Windchill Dew Point Humidity Pressure Visibility Wind Dir Wind Speed Gust Speed Precip Events Conditions
12:51 AM 32.0 °F - 21.9 °F 66% 30.14 in - Calm Calm - N/A   Unknown
1:51 AM 32.0 °F - 23.0 °F 69% 30.15 in - Calm Calm - N/A   Unknown
2:51 AM 30.9 °F - 21.9 °F 69% 30.16 in - Calm Calm - N/A   Unknown
3:51 AM 32.0 °F - 21.0 °F 64% 30.16 in - Calm Calm - N/A   Unknown
4:51 AM 32.0 °F - 19.9 °F 61% 30.16 in - Calm Calm - N/A   Unknown
5:51 AM 30.0 °F - 21.0 °F 69% 30.18 in - Calm Calm - N/A   Unknown
6:51 AM 30.0 °F - 21.9 °F 72% 30.19 in - Calm Calm - N/A   Unknown
7:51 AM 30.0 °F - 21.9 °F 72% 30.21 in - Calm Calm - N/A   Unknown
8:51 AM 30.9 °F - 21.9 °F 69% 30.22 in - Calm Calm - N/A   Unknown
9:51 AM 32.0 °F 28.7 °F 21.0 °F 64% 30.24 in - SW 3.5 mph - N/A   Unknown
10:51 AM 33.1 °F - 21.0 °F 61% 30.23 in - Calm Calm - N/A   Unknown
11:51 AM 33.1 °F - 25.0 °F 72% 30.21 in - Calm Calm - N/A   Unknown
12:51 PM 35.1 °F 31.0 °F 19.0 °F 52% 30.22 in - West 4.6 mph - N/A   Unknown
1:51 PM 35.1 °F - 21.0 °F 57% 30.20 in - Calm Calm - N/A   Unknown
2:51 PM 33.1 °F 26.1 °F 25.0 °F 72% 30.20 in - East 8.1 mph - N/A   Unknown
3:51 PM 33.1 °F 26.1 °F 24.1 °F 70% 30.20 in - ESE 8.1 mph - N/A   Unknown
4:51 PM 32.0 °F 24.8 °F 25.0 °F 75% 30.19 in - ESE 8.1 mph - N/A   Unknown
5:51 PM 32.0 °F 26.4 °F 21.9 °F 66% 30.19 in - SE 5.8 mph - N/A   Unknown
6:51 PM 30.0 °F 24.1 °F 23.0 °F 75% 30.19 in - ESE 5.8 mph - N/A   Unknown
7:51 PM 28.9 °F - 24.1 °F 82% 30.21 in - Calm Calm - N/A   Unknown
8:51 PM 27.0 °F - 23.0 °F 85% 30.22 in - Calm Calm - N/A   Unknown
9:51 PM 26.1 °F - 21.9 °F 84% 30.21 in - Calm Calm - N/A   Unknown
10:51 PM 27.0 °F 20.5 °F 24.1 °F 89% 30.16 in - SE 5.8 mph - N/A   Unknown
11:51 PM 27.0 °F 20.5 °F 21.9 °F 81% 30.18 in - ESE 5.8 mph - N/A   Unknown